This is the latest recevied weather packets stored in our database for station/object F8BMG-Wx. If no packets are shown the sender has not sent any weather packets the latest 10 day(s).
| Time | Temp. | Humidity | Pressure | Rain* | Wind** | Luminosity | Snow |
|---|---|---|---|---|---|---|---|
| 1777912876 | 15.56° C | 99% | 1012 hPa | 0.25 mm | - | - | - |
| 1777912563 | 15.56° C | 99% | 1012.1 hPa | 0.25 mm | - | - | - |
| 1777912260 | 15.56° C | 99% | 1012.1 hPa | 0 mm | - | - | - |
| 1777911956 | 15.56° C | 99% | 1012 hPa | 0 mm | - | - | - |
| 1777911652 | 15.56° C | 99% | 1012 hPa | 0 mm | - | - | - |
| 1777911349 | 15.56° C | 99% | 1012 hPa | 0 mm | - | - | - |
| 1777911051 | 15.56° C | 99% | 1012 hPa | 0 mm | - | - | - |
| 1777910739 | 15.56° C | 99% | 1011.9 hPa | 0 mm | - | - | - |
| 1777910435 | 15.56° C | 99% | 1011.9 hPa | 0 mm | - | - | - |
| 1777910129 | 15.56° C | 99% | 1011.9 hPa | 0 mm | - | - | - |
| 1777909826 | 15.56° C | 99% | 1011.9 hPa | 0 mm | - | - | - |
| 1777909522 | 15.56° C | 99% | 1011.8 hPa | 0 mm | - | - | - |
| 1777909225 | 15.56° C | 99% | 1011.8 hPa | 0 mm | - | - | - |
| 1777908912 | 15.56° C | 99% | 1011.8 hPa | 0 mm | - | - | - |
| 1777908608 | 15.56° C | 99% | 1011.7 hPa | 0 mm | - | - | - |
| 1777908305 | 15.56° C | 99% | 1011.6 hPa | 0 mm | - | - | - |
| 1777908002 | 15.56° C | 99% | 1011.4 hPa | 0 mm | - | - | - |
| 1777907698 | 16.11° C | 99% | 1011.2 hPa | 0 mm | - | - | - |
| 1777907400 | 16.11° C | 99% | 1011.1 hPa | 0 mm | - | - | - |
| 1777907088 | 16.67° C | 99% | 1011.1 hPa | 0 mm | - | - | - |
| 1777906785 | 16.67° C | 99% | 1011.2 hPa | 0 mm | - | - | - |
| 1777906481 | 16.67° C | 99% | 1011 hPa | 0 mm | - | - | - |
| 1777906178 | 17.22° C | 99% | 1011 hPa | 0 mm | - | - | - |
| 1777905874 | 16.67° C | 99% | 1010.9 hPa | 0 mm | - | - | - |
| 1777905577 | 16.11° C | 99% | 1010.8 hPa | 0 mm | - | - | - |
* Rain latest hour (hover to see other rain measurements)
** Current wind speed in m/s (hover to see current wind gust speed)